User: anonymous   Login
Location: *
(43.7000°S, 168.7000°W)
Time: 01:34:02
(UTC+00:00)
Language:

Cosmos 1340 Rocket - Orbit

View from above orbital plane
View from above orbital plane
View from above satellite
View from above satellite

Ground track
Ground track

The orbit data is extracted from the following two-line orbital elements,

1 13068U 82013B   20272.57639882 -.00000130 +00000-0 -10088-4 0  9990
2 13068 081.2003 292.5829 0020100 318.5582 041.4117 15.07471704103903
Epoch (UTC): 28 September 2020 13:50:00
Eccentricity: 0.0020100
inclination: 81.2003°
perigee height: 530 km
apogee height: 558 km
right ascension of ascending node: 292.5829°
argument of perigee: 318.5582°
revolutions per day: 15.07471704
mean anomaly at epoch: 41.4117°
orbit number at epoch: 10390

The dashed part of the orbit path shows where the satellite is in the earth's shadow,  

DLR